Hourly Weather Adilabad

Today, 7 March, Sunday

Time Temperature Precipitation Wind Pressure Humidity
00:00 +26°C° 0 mm 0 mps 736 mmHg 14%
01:00 +25°C° 0 mm 0 mps 736 mmHg 14%
02:00 +24°C° 0 mm 0 mps 736 mmHg 15%
03:00 +26°C° 0 mm 1 mps 736 mmHg 15%
04:00 +25°C° 0 mm 1 mps 736 mmHg 16%
05:00 +25°C° 0 mm 1 mps 736 mmHg 17%
06:00 +27°C° 0 mm 1 mps 737 mmHg 16%
07:00 +29°C° 0 mm 1 mps 737 mmHg 15%
08:00 +31°C° 0 mm 2 mps 738 mmHg 13%
09:00 +34°C° 0 mm 2 mps 738 mmHg 12%
10:00 +37°C° 0 mm 2 mps 738 mmHg 11%
11:00 +39°C° 0 mm 3 mps 739 mmHg 11%
12:00 +40°C° 0 mm 2 mps 738 mmHg 10%
13:00 +40°C° 0 mm 2 mps 737 mmHg 10%
14:00 +41°C° 0 mm 1 mps 736 mmHg 9%
15:00 +41°C° 0 mm 2 mps 736 mmHg 9%
16:00 +40°C° 0 mm 2 mps 735 mmHg 9%
17:00 +40°C° 0 mm 2 mps 735 mmHg 10%
18:00 +36°C° 0 mm 1 mps 735 mmHg 11%
19:00 +34°C° 0 mm 1 mps 735 mmHg 13%
20:00 +31°C° 0 mm 1 mps 736 mmHg 14%
21:00 +31°C° 0 mm 1 mps 736 mmHg 14%
22:00 +30°C° 0 mm 1 mps 736 mmHg 15%
23:00 +29°C° 0 mm 2 mps 736 mmHg 15%

Tomorrow, 8 March, Monday

Time Temperature Precipitation Wind Pressure Humidity
00:00 +29°C° 0 mm 1 mps 736 mmHg 16%
01:00 +28°C° 0 mm 1 mps 735 mmHg 16%
02:00 +28°C° 0 mm 1 mps 735 mmHg 17%
03:00 +27°C° 0 mm 1 mps 735 mmHg 19%
04:00 +26°C° 0 mm 1 mps 735 mmHg 20%
05:00 +26°C° 0 mm 2 mps 736 mmHg 21%
06:00 +27°C° 0 mm 1 mps 737 mmHg 20%
07:00 +29°C° 0 mm 1 mps 738 mmHg 18%
08:00 +31°C° 0 mm 1 mps 739 mmHg 16%
09:00 +33°C° 0 mm 1 mps 739 mmHg 15%
10:00 +36°C° 0 mm 2 mps 739 mmHg 13%
11:00 +39°C° 0 mm 2 mps 738 mmHg 12%
12:00 +40°C° 0 mm 2 mps 738 mmHg 11%
13:00 +41°C° 0 mm 1 mps 737 mmHg 10%
14:00 +42°C° 0 mm 1 mps 736 mmHg 9%
15:00 +41°C° 0 mm 1 mps 735 mmHg 9%
16:00 +41°C° 0 mm 1 mps 735 mmHg 9%
17:00 +40°C° 0 mm 1 mps 735 mmHg 9%
18:00 +37°C° 0 mm 1 mps 735 mmHg 11%
19:00 +35°C° 0 mm 1 mps 736 mmHg 12%
20:00 +34°C° 0 mm 2 mps 736 mmHg 13%
21:00 +32°C° 0 mm 2 mps 736 mmHg 14%
22:00 +31°C° 0 mm 1 mps 736 mmHg 15%
23:00 +30°C° 0 mm 1 mps 736 mmHg 16%

Day after tomorrow, 9 March, Tuesday

Time Temperature Precipitation Wind Pressure Humidity
00:00 +30°C° 0 mm 2 mps 736 mmHg 18%
01:00 +29°C° 0 mm 3 mps 736 mmHg 20%
02:00 +29°C° 0 mm 4 mps 735 mmHg 21%
03:00 +28°C° 0 mm 3 mps 735 mmHg 24%
04:00 +27°C° 0 mm 3 mps 736 mmHg 27%
05:00 +26°C° 0 mm 2 mps 736 mmHg 30%
06:00 +27°C° 0 mm 2 mps 737 mmHg 30%
07:00 +29°C° 0 mm 2 mps 738 mmHg 29%
08:00 +30°C° 0 mm 3 mps 739 mmHg 29%
09:00 +34°C° 0 mm 3 mps 739 mmHg 25%
10:00 +36°C° 0 mm 3 mps 739 mmHg 22%
11:00 +38°C° 0 mm 3 mps 739 mmHg 18%
12:00 +39°C° 0 mm 3 mps 738 mmHg 16%
13:00 +40°C° 0 mm 2 mps 737 mmHg 14%
14:00 +41°C° 0 mm 2 mps 736 mmHg 12%
15:00 +41°C° 0 mm 2 mps 736 mmHg 12%
16:00 +41°C° 0 mm 2 mps 735 mmHg 12%
17:00 +40°C° 0 mm 2 mps 735 mmHg 12%
18:00 +38°C° 0 mm 2 mps 735 mmHg 14%
19:00 +36°C° 0 mm 2 mps 736 mmHg 15%
20:00 +34°C° 0 mm 3 mps 736 mmHg 17%
21:00 +33°C° 0 mm 3 mps 736 mmHg 18%
22:00 +31°C° 0 mm 3 mps 736 mmHg 19%
23:00 +31°C° 0 mm 3 mps 736 mmHg 20%

10 March, Wednesday

Time Temperature Precipitation Wind Pressure Humidity
00:00 +30°C° 0 mm 3 mps 736 mmHg 21%
01:00 +29°C° 0 mm 3 mps 736 mmHg 22%
02:00 +29°C° 0 mm 3 mps 735 mmHg 24%
03:00 +28°C° 0 mm 2 mps 735 mmHg 26%
04:00 +27°C° 0 mm 2 mps 735 mmHg 28%
05:00 +26°C° 0 mm 2 mps 735 mmHg 30%
06:00 +28°C° 0 mm 2 mps 736 mmHg 29%
07:00 +29°C° 0 mm 2 mps 737 mmHg 29%
08:00 +31°C° 0 mm 2 mps 738 mmHg 28%
09:00 +34°C° 0 mm 3 mps 738 mmHg 24%
10:00 +37°C° 0 mm 3 mps 738 mmHg 21%
11:00 +39°C° 0 mm 3 mps 738 mmHg 17%
12:00 +40°C° 0 mm 2 mps 737 mmHg 16%
13:00 +41°C° 0 mm 2 mps 736 mmHg 14%
14:00 +42°C° 0 mm 1 mps 735 mmHg 12%
15:00 +41°C° 0 mm 1 mps 735 mmHg 12%
16:00 +41°C° 0 mm 1 mps 734 mmHg 13%
17:00 +40°C° 0 mm 1 mps 734 mmHg 13%
18:00 +37°C° 0 mm 1 mps 734 mmHg 15%
19:00 +35°C° 0 mm 1 mps 735 mmHg 17%
20:00 +34°C° 0 mm 2 mps 735 mmHg 18%
21:00 +32°C° 0 mm 2 mps 735 mmHg 20%
22:00 +32°C° 0 mm 2 mps 735 mmHg 21%
23:00 +31°C° 0 mm 2 mps 735 mmHg 22%

11 March, Thursday

Time Temperature Precipitation Wind Pressure Humidity
00:00 +30°C° 0 mm 2 mps 735 mmHg 24%
01:00 +29°C° 0 mm 2 mps 735 mmHg 26%
02:00 +28°C° 0 mm 2 mps 735 mmHg 28%
03:00 +28°C° 0 mm 2 mps 735 mmHg 29%
04:00 +27°C° 0 mm 2 mps 735 mmHg 31%
05:00 +26°C° 0 mm 2 mps 735 mmHg 33%
06:00 +28°C° 0 mm 2 mps 736 mmHg 31%
07:00 +30°C° 0 mm 2 mps 737 mmHg 28%
08:00 +31°C° 0 mm 2 mps 738 mmHg 26%
09:00 +34°C° 0 mm 3 mps 738 mmHg 22%
10:00 +37°C° 0 mm 3 mps 738 mmHg 19%
11:00 +39°C° 0 mm 3 mps 738 mmHg 15%
12:00 +40°C° 0 mm 3 mps 737 mmHg 14%
13:00 +42°C° 0 mm 3 mps 736 mmHg 13%
14:00 +41°C° 0 mm 2 mps 735 mmHg 12%
15:00 +41°C° 0 mm 2 mps 735 mmHg 13%
16:00 +40°C° 0 mm 2 mps 735 mmHg 13%
17:00 +40°C° 0 mm 1 mps 735 mmHg 13%
18:00 +37°C° 0 mm 1 mps 735 mmHg 15%
19:00 +35°C° 0 mm 1 mps 736 mmHg 17%
20:00 +33°C° 0 mm 1 mps 736 mmHg 19%
21:00 +32°C° 0 mm 1 mps 736 mmHg 20%
22:00 +31°C° 0 mm 1 mps 736 mmHg 22%
23:00 +31°C° 0 mm 1 mps 737 mmHg 23%

12 March, Friday

Time Temperature Precipitation Wind Pressure Humidity
00:00 +30°C° 0 mm 2 mps 736 mmHg 24%
01:00 +30°C° 0 mm 2 mps 736 mmHg 26%
02:00 +29°C° 0 mm 2 mps 736 mmHg 27%
03:00 +28°C° 0 mm 2 mps 736 mmHg 28%
04:00 +28°C° 0 mm 2 mps 736 mmHg 30%
05:00 +27°C° 0 mm 2 mps 736 mmHg 31%
06:00 +29°C° 0 mm 3 mps 737 mmHg 29%
07:00 +30°C° 0 mm 3 mps 738 mmHg 27%
08:00 +33°C° 0 mm 3 mps 739 mmHg 25%
09:00 +35°C° 0 mm 3 mps 739 mmHg 22%
10:00 +37°C° 0 mm 3 mps 739 mmHg 19%
11:00 +39°C° 0 mm 3 mps 739 mmHg 16%
12:00 +40°C° 0 mm 2 mps 738 mmHg 15%
13:00 +41°C° 0 mm 1 mps 737 mmHg 14%
14:00 +39°C° 0 mm 0 mps 736 mmHg 12%
15:00 +41°C° 0 mm 1 mps 736 mmHg 13%
16:00 +41°C° 0 mm 1 mps 736 mmHg 14%
17:00 +40°C° 0 mm 2 mps 736 mmHg 14%
18:00 +38°C° 0 mm 2 mps 736 mmHg 16%
19:00 +35°C° 0 mm 1 mps 736 mmHg 19%
20:00 +33°C° 0 mm 1 mps 736 mmHg 21%
21:00 +32°C° 0 mm 1 mps 737 mmHg 22%
22:00 +32°C° 0 mm 1 mps 737 mmHg 23%
23:00 +31°C° 0 mm 1 mps 737 mmHg 24%
Show more